Tel Aviv, Israel

6:09 PM IDT on September 22, 2018 (GMT +0300)
Ben Gurion

Weather History for LLBG - March, 2018

Change the Weather History Date:

Wednesday, March 14, 2018

  Actual Average Record
Temperature  
Mean Temperature 64 °F -  
Max Temperature 75 °F 70 °F 87 °F (2013)
Min Temperature 53 °F 53 °F 44 °F (2005)
Degree Days  
Heating Degree Days 1    
Growing Degree Days 14 (Base 50)    
Moisture  
Dew Point 48 °F    
Average Humidity 60    
Maximum Humidity 88    
Minimum Humidity 14    
Precipitation  
Precipitation 0.00 in - - ()
Sea Level Pressure  
Sea Level Pressure 29.99 in    
Wind  
Wind Speed 4 mph ()    
Max Wind Speed 14 mph    
Max Gust Speed -    
Visibility 6.1 miles    
Events      
Averages and records for this station are not official NWS values.
T = Trace of Precipitation, MM = Missing Value Source: Averaged Metar Reports

Daily Weather History Graph

Daily Weather History Graph

Search for Another Location

Airport or City:

Astronomy

Mar. 14, 2018 Rise Set
Actual Time 5:52 AM IST 5:47 PM IST
Civil Twilight 5:27 AM IST 6:11 PM IST
Nautical Twilight 4:59 AM IST 6:40 PM IST
Astronomical Twilight 4:31 AM IST 7:08 PM IST
Moon 4:01 AM IST (3/14) 2:58 PM IST (3/14)
Length of Visible Light 12h 44m
Length of Day
11h 55m
Waning Crescent, 10% of the Moon is Illuminated
Mar 14
Waning Crescent
Mar 17
New
Mar 24
First Quarter
Mar 31
Full
Apr 8
Last Quarter

Hourly Weather History & Observations

Time (IST) Temp. Dew Point Humidity Pressure Visibility Wind Dir Wind Speed Gust Speed Precip Events Conditions
12:20 AM 57.2 °F 51.8 °F 82% 29.98 in - SE 4.6 mph - N/A   Clear
12:50 AM 55.4 °F 51.8 °F 88% 30.01 in - Variable 2.3 mph - N/A   Clear
1:20 AM 55.4 °F 51.8 °F 88% 30.01 in - Variable 1.2 mph - N/A   Clear
1:50 AM 57.2 °F 51.8 °F 82% 29.98 in - Variable 2.3 mph - N/A   Clear
2:00 AM 56 °F 51 °F 79% 30.00 in 6 mi 2.3 mph - -  
2:20 AM 53.6 °F 48.2 °F 82% 29.98 in - Variable 2.3 mph - N/A   Clear
2:50 AM 55.4 °F 48.2 °F 77% 29.98 in - SE 4.6 mph - N/A   Clear
3:20 AM 55.4 °F 46.4 °F 72% 29.98 in - Variable 3.5 mph - N/A   Clear
3:50 AM 55.4 °F 44.6 °F 67% 29.98 in - Variable 3.5 mph - N/A   Clear
4:20 AM 55.4 °F 41.0 °F 58% 29.98 in - Variable 3.5 mph - N/A   Clear
4:50 AM 55.4 °F 39.2 °F 54% 29.98 in - Variable 3.5 mph - N/A   Clear
5:00 AM 56 °F 39 °F 42% 29.99 in 6 mi 3.5 mph - -   Scattered Clouds
5:20 AM 53.6 °F 41.0 °F 62% 29.98 in - Variable 1.2 mph - N/A   Clear
5:50 AM 55.4 °F 39.2 °F 54% 29.98 in - SE 4.6 mph - N/A   Clear
6:50 AM 57.2 °F 37.4 °F 48% 29.98 in - SSE 4.6 mph - N/A   Clear
7:20 AM 60.8 °F 39.2 °F 45% 29.98 in - Variable 3.5 mph - N/A   Clear
7:50 AM 60.8 °F 41.0 °F 48% 30.01 in - Variable 1.2 mph - N/A   Clear
8:00 AM 61 °F 40 °F 34% 30.01 in 6 mi 2.3 mph - -  
8:20 AM 66.2 °F 41.0 °F 40% 30.01 in - Variable 1.2 mph - N/A   Clear
8:50 AM 68.0 °F 39.2 °F 35% 30.01 in - Variable 1.2 mph - N/A   Clear
9:20 AM 71.6 °F 30.2 °F 22% 30.01 in - WSW 5.8 mph - N/A   Clear
9:50 AM 71.6 °F 32.0 °F 23% 30.01 in - WSW 6.9 mph - N/A   Clear
10:20 AM 73.4 °F 37.4 °F 27% 30.01 in - West 6.9 mph - N/A   Clear
10:50 AM 73.4 °F 37.4 °F 27% 30.01 in - West 6.9 mph - N/A   Clear
11:00 AM 74 °F 35 °F 14% 29.99 in 6 mi West 8.1 mph - -  
11:20 AM 73.4 °F 39.2 °F 29% 29.98 in - West 8.1 mph - N/A   Clear
11:50 AM 75.2 °F 41.0 °F 29% 29.98 in - West 9.2 mph - N/A   Clear
12:20 PM 75.2 °F 42.8 °F 31% 29.98 in - West 9.2 mph - N/A   Clear
12:50 PM 75.2 °F 48.2 °F 38% 29.98 in - West 11.5 mph - N/A   Clear
1:20 PM 75.2 °F 46.4 °F 36% 29.95 in - West 11.5 mph - N/A   Clear
1:50 PM 73.4 °F 46.4 °F 38% 29.95 in - West 9.2 mph - N/A   Clear
2:00 PM 74 °F 47 °F 28% 29.96 in 6 mi West 10.4 mph - -  
2:20 PM 73.4 °F 53.6 °F 50% 29.95 in - West 10.4 mph - N/A   Clear
2:50 PM 71.6 °F 55.4 °F 57% 29.95 in - West 10.4 mph - N/A   Clear
3:20 PM 71.6 °F 59.0 °F 64% 29.95 in 6.2 mi West 10.4 mph - N/A   Partly Cloudy
3:50 PM 69.8 °F 59.0 °F 68% 29.95 in 6.2 mi WNW 12.7 mph - N/A   Partly Cloudy
4:20 PM 68.0 °F 57.2 °F 68% 29.98 in 6.2 mi West 13.8 mph - N/A   Partly Cloudy
4:50 PM 66.2 °F 57.2 °F 73% 29.98 in - WNW 8.1 mph - N/A   Clear
5:20 PM 66.2 °F 57.2 °F 73% 29.98 in - NW 6.9 mph - N/A   Clear
5:50 PM 64.4 °F 55.4 °F 73% 29.98 in - NW 5.8 mph - N/A   Clear
6:20 PM 62.6 °F 55.4 °F 77% 29.98 in - WNW 5.8 mph - N/A   Clear
6:50 PM 62.6 °F 57.2 °F 82% 29.98 in - Variable 3.5 mph - N/A   Clear
7:20 PM 62.6 °F 55.4 °F 77% 29.98 in - Variable 3.5 mph - N/A   Clear
7:50 PM 60.8 °F 55.4 °F 82% 29.98 in 6.2 mi Variable 3.5 mph - N/A   Partly Cloudy
8:00 PM 62 °F 56 °F 74% 30.00 in 6 mi WNW 4.6 mph - -   Scattered Clouds
8:20 PM 60.8 °F 55.4 °F 82% 30.01 in 6.2 mi WNW 5.8 mph - N/A   Partly Cloudy
8:50 PM 60.8 °F 55.4 °F 82% 30.01 in 6.2 mi Variable 2.3 mph - N/A   Partly Cloudy
9:20 PM 60.8 °F 55.4 °F 82% 30.01 in - Variable 3.5 mph - N/A   Clear
9:50 PM 60.8 °F 55.4 °F 82% 30.01 in - Variable 3.5 mph - N/A   Clear
10:20 PM 59.0 °F 53.6 °F 82% 30.01 in - Variable 1.2 mph - N/A   Clear
10:50 PM 59.0 °F 53.6 °F 82% 29.98 in - Variable 3.5 mph - N/A   Clear
11:00 PM 58 °F 54 °F 82% 30.00 in 6 mi 3.5 mph - -  
11:20 PM 59.0 °F 53.6 °F 82% 29.98 in 6.2 mi Variable 2.3 mph - N/A   Partly Cloudy
11:50 PM 59.0 °F 53.6 °F 82% 29.98 in 6.2 mi Variable 3.5 mph - N/A   Scattered Clouds